W9IF-4 Weather Reports


Display with metric or nautical units.
time (UTC)temp
F
wind
direction
speed
MPH
gust
MPH
rain 1hr
in
rain 24hr
in
rain mn
in
humidity
%
barometer
mb
20170724004018 79 236 10.0 0.0 0.00 0.00 0.00 1004.7
20170724003718 80 228 12.0 0.0 0.00 0.00 0.00 1004.7
20170724003618 80 226 10.0 0.0 0.00 0.00 0.00 1004.7
20170724003418 80 228 9.0 0.0 0.00 0.00 0.00 1004.8
20170724003218 80 218 11.0 0.0 0.00 0.00 0.00 1004.7
20170724003118 80 226 11.0 0.0 0.00 0.00 0.00 1004.7
20170724003018 79 224 9.0 0.0 0.00 0.00 0.00 1004.7
20170724002918 78 232 11.0 0.0 0.00 0.00 0.00 1004.7
20170724002818 78 242 7.0 0.0 0.00 0.00 0.00 1004.7
20170724002718 77 255 8.0 0.0 0.00 0.00 0.00 1004.7
20170724002618 78 256 10.0 0.0 0.00 0.00 0.00 1004.7
20170724002518 78 249 10.0 0.0 0.00 0.00 0.00 1004.7
20170724002418 80 255 8.0 0.0 0.00 0.00 0.00 1004.7
20170724002318 79 284 9.0 0.0 0.00 0.00 0.00 1004.7
20170724002218 78 226 8.0 0.0 0.00 0.00 0.00 1004.7
20170724002118 77 232 8.0 0.0 0.00 0.00 0.00 1004.7
20170724002018 78 240 9.0 0.0 0.00 0.00 0.00 1004.8
20170724001918 79 233 12.0 0.0 0.00 0.00 0.00 1004.7
20170724001718 80 217 11.0 0.0 0.00 0.00 0.00 1004.7
20170724001618 80 194 10.0 0.0 0.00 0.00 0.00 1004.7
20170724001518 80 229 12.0 0.0 0.00 0.00 0.00 1004.7
20170724001318 79 235 11.0 0.0 0.00 0.00 0.00 1004.7
20170724001218 78 245 9.0 0.0 0.00 0.00 0.00 1004.7
20170724001118 78 266 11.0 0.0 0.00 0.00 0.00 1004.7
20170724000918 80 229 12.0 0.0 0.00 0.00 0.00 1004.7
20170724000818 80 236 13.0 0.0 0.00 0.00 0.00 1004.6
20170724000718 79 226 13.0 0.0 0.00 0.00 0.00 1004.7
20170724000518 80 236 12.0 0.0 0.00 0.00 0.00 1004.6
20170724000418 81 226 12.0 0.0 0.00 0.00 0.00 1004.7
20170724000318 80 224 13.0 0.0 0.00 0.00 0.00 1004.7
20170724000118 79 243 10.0 0.0 0.00 0.00 0.00 1004.6
20170724000018 78 232 12.0 0.0 0.00 0.00 0.00 1004.6
20170723235918 77 236 11.0 0.0 0.00 0.00 0.00 1004.6
20170723235818 77 238 12.0 0.0 0.00 0.00 0.00 1004.6
20170723235618 76 236 13.0 0.0 0.00 0.00 0.00 1004.7
20170723235518 78 250 13.0 0.0 0.00 0.00 0.00 1004.7
20170723235418 78 252 12.0 0.0 0.00 0.00 0.00 1004.7
20170723235317 78 240 11.0 0.0 0.00 0.00 0.00 1004.7
20170723235218 77 231 14.0 0.0 0.00 0.00 0.00 1004.7
20170723235018 77 260 11.0 0.0 0.00 0.00 0.00 1004.7
20170723234918 78 231 12.0 0.0 0.00 0.00 0.00 1004.7
20170723234818 78 219 9.0 0.0 0.00 0.00 0.00 1004.6
20170723234718 79 217 11.0 0.0 0.00 0.00 0.00 1004.6
20170723234618 79 239 13.0 0.0 0.00 0.00 0.00 1004.6
20170723234518 80 250 13.0 0.0 0.00 0.00 0.00 1004.5
20170723234118 79 228 14.0 0.0 0.00 0.00 0.00 1004.6
20170723234018 80 257 11.0 0.0 0.00 0.00 0.00 1004.6
20170723233818 81 225 6.0 0.0 0.00 0.00 0.00 1004.6
20170723233718 81 238 13.0 0.0 0.00 0.00 0.00 1004.5
20170723233617 82 219 13.0 0.0 0.00 0.00 0.00 1004.6
20170723233518 82 224 11.0 0.0 0.00 0.00 0.00 1004.5
20170723233417 82 214 14.0 0.0 0.00 0.00 0.00 1004.6
20170723233318 81 236 11.0 0.0 0.00 0.00 0.00 1004.5
20170723233217 81 233 12.0 0.0 0.00 0.00 0.00 1004.6
20170723233118 82 238 7.0 0.0 0.00 0.00 0.00 1004.6
20170723233017 82 250 7.0 0.0 0.00 0.00 0.00 1004.5
20170723232917 82 218 11.0 0.0 0.00 0.00 0.00 1004.5
20170723232817 82 245 11.0 0.0 0.00 0.00 0.00 1004.5
20170723232617 80 233 10.0 0.0 0.00 0.00 0.00 1004.5
20170723232517 80 231 9.0 0.0 0.00 0.00 0.00 1004.5
20170723232417 80 238 11.0 0.0 0.00 0.00 0.00 1004.6
20170723232317 79 232 9.0 0.0 0.00 0.00 0.00 1004.5
20170723232217 80 255 9.0 0.0 0.00 0.00 0.00 1004.6
20170723232117 81 252 11.0 0.0 0.00 0.00 0.00 1004.6
20170723232017 80 256 10.0 0.0 0.00 0.00 0.00 1004.6
20170723231917 81 256 9.0 0.0 0.00 0.00 0.00 1004.5
20170723231817 82 238 11.0 0.0 0.00 0.00 0.00 1004.5
20170723231718 81 201 8.0 0.0 0.00 0.00 0.00 1004.6
20170723231617 80 201 11.0 0.0 0.00 0.00 0.00 1004.6
20170723231517 79 263 10.0 0.0 0.00 0.00 0.00 1004.5
20170723231317 78 271 10.0 0.0 0.00 0.00 0.00 1004.6
20170723231217 79 246 10.0 0.0 0.00 0.00 0.00 1004.6
20170723231117 80 273 9.0 0.0 0.00 0.00 0.00 1004.5
20170723231017 80 243 11.0 0.0 0.00 0.00 0.00 1004.6
20170723230917 81 263 9.0 0.0 0.00 0.00 0.00 1004.5
20170723230817 81 240 12.0 0.0 0.00 0.00 0.00 1004.6
20170723230717 81 249 8.0 0.0 0.00 0.00 0.00 1004.6
20170723230617 82 228 12.0 0.0 0.00 0.00 0.00 1004.5
20170723230518 82 243 7.0 0.0 0.00 0.00 0.00 1004.5
20170723230417 82 231 12.0 0.0 0.00 0.00 0.00 1004.5
20170723230317 81 242 9.0 0.0 0.00 0.00 0.00 1004.5
20170723230217 80 243 11.0 0.0 0.00 0.00 0.00 1004.5
20170723230117 79 242 8.0 0.0 0.00 0.00 0.00 1004.5
20170723230017 79 235 11.0 0.0 0.00 0.00 0.00 1004.5
20170723225917 79 250 10.0 0.0 0.00 0.00 0.00 1004.5
20170723225817 81 267 13.0 0.0 0.00 0.00 0.00 1004.5
20170723225717 81 250 9.0 0.0 0.00 0.00 0.00 1004.6
20170723225617 81 246 9.0 0.0 0.00 0.00 0.00 1004.6
20170723225517 81 236 11.0 0.0 0.00 0.00 0.00 1004.6
20170723225417 80 264 8.0 0.0 0.00 0.00 0.00 1004.6
20170723225317 80 232 11.0 0.0 0.00 0.00 0.00 1004.6
20170723225218 79 256 9.0 0.0 0.00 0.00 0.00 1004.6
20170723225117 78 262 9.0 0.0 0.00 0.00 0.00 1004.6
20170723225017 79 259 11.0 0.0 0.00 0.00 0.00 1004.6
20170723224917 80 246 10.0 0.0 0.00 0.00 0.00 1004.5
20170723224817 79 238 10.0 0.0 0.00 0.00 0.00 1004.6
20170723224717 78 263 9.0 0.0 0.00 0.00 0.00 1004.6
20170723224617 78 280 10.0 0.0 0.00 0.00 0.00 1004.6
20170723224517 79 231 8.0 0.0 0.00 0.00 0.00 1004.6
20170723224417 79 250 10.0 0.0 0.00 0.00 0.00 1004.6
20170723224317 80 259 9.0 0.0 0.00 0.00 0.00 1004.6
20170723224217 80 250 8.0 0.0 0.00 0.00 0.00 1004.6
20170723224117 82 239 9.0 0.0 0.00 0.00 0.00 1004.6
20170723224017 82 239 8.0 0.0 0.00 0.00 0.00 1004.6
20170723223917 82 239 10.0 0.0 0.00 0.00 0.00 1004.6
20170723223817 82 232 9.0 0.0 0.00 0.00 0.00 1004.6
20170723223717 82 226 11.0 0.0 0.00 0.00 0.00 1004.6
20170723223617 82 235 11.0 0.0 0.00 0.00 0.00 1004.6
20170723223417 81 235 10.0 0.0 0.00 0.00 0.00 1004.6
20170723223317 80 245 11.0 0.0 0.00 0.00 0.00 1004.6
20170723223117 81 238 12.0 0.0 0.00 0.00 0.00 1004.6
20170723222817 82 228 11.0 0.0 0.00 0.00 0.00 1004.7
20170723222717 82 203 6.0 0.0 0.00 0.00 0.00 1004.7
20170723222517 80 242 10.0 0.0 0.00 0.00 0.00 1004.7
20170723222417 80 250 9.0 0.0 0.00 0.00 0.00 1004.7
20170723222217 79 257 11.0 0.0 0.00 0.00 0.00 1004.7
20170723222117 81 263 8.0 0.0 0.00 0.00 0.00 1004.7
20170723222017 80 233 9.0 0.0 0.00 0.00 0.00 1004.7
20170723221917 79 231 10.0 0.0 0.00 0.00 0.00 1004.7
20170723221818 79 257 11.0 0.0 0.00 0.00 0.00 1004.7
20170723221717 80 252 11.0 0.0 0.00 0.00 0.00 1004.7
20170723221517 82 238 11.0 0.0 0.00 0.00 0.00 1004.7
20170723221417 81 231 11.0 0.0 0.00 0.00 0.00 1004.7
20170723221317 82 243 10.0 0.0 0.00 0.00 0.00 1004.7
20170723221217 82 243 12.0 0.0 0.00 0.00 0.00 1004.7
20170723221117 83 233 9.0 0.0 0.00 0.00 0.00 1004.8
20170723221017 83 246 12.0 0.0 0.00 0.00 0.00 1004.7
20170723220917 83 225 13.0 0.0 0.00 0.00 0.00 1004.8
20170723220817 83 231 12.0 0.0 0.00 0.00 0.00 1004.8
20170723220617 82 228 10.0 0.0 0.00 0.00 0.00 1004.8
20170723220518 82 264 6.0 0.0 0.00 0.00 0.00 1004.8
20170723220417 83 239 11.0 0.0 0.00 0.00 0.00 1004.8
20170723220217 82 263 6.0 0.0 0.00 0.00 0.00 1004.8
20170723220117 82 221 7.0 0.0 0.00 0.00 0.00 1004.9
20170723220017 82 236 11.0 0.0 0.00 0.00 0.00 1004.9
20170723215917 82 229 10.0 0.0 0.00 0.00 0.00 1004.9
20170723215817 81 252 9.0 0.0 0.00 0.00 0.00 1004.9
20170723215717 81 264 9.0 0.0 0.00 0.00 0.00 1004.9
20170723215617 82 228 11.0 0.0 0.00 0.00 0.00 1004.9
20170723215517 81 211 11.0 0.0 0.00 0.00 0.00 1004.9
20170723215417 79 256 6.0 0.0 0.00 0.00 0.00 1004.9
20170723215317 81 256 10.0 0.0 0.00 0.00 0.00 1004.9
20170723215217 82 257 7.0 0.0 0.00 0.00 0.00 1004.9
20170723215117 83 269 8.0 0.0 0.00 0.00 0.00 1004.9
20170723215017 82 243 10.0 0.0 0.00 0.00 0.00 1004.9
20170723214917 80 235 10.0 0.0 0.00 0.00 0.00 1004.9
20170723214717 82 256 10.0 0.0 0.00 0.00 0.00 1004.9
20170723214617 82 248 8.0 0.0 0.00 0.00 0.00 1004.8
20170723214517 81 232 10.0 0.0 0.00 0.00 0.00 1004.8
20170723214417 80 248 8.0 0.0 0.00 0.00 0.00 1004.8
20170723214317 79 233 9.0 0.0 0.00 0.00 0.00 1004.9
20170723214217 78 260 7.0 0.0 0.00 0.00 0.00 1004.8
20170723214117 79 271 10.0 0.0 0.00 0.00 0.00 1004.8
20170723214017 78 248 6.0 0.0 0.00 0.00 0.00 1004.9
20170723213917 77 232 9.0 0.0 0.00 0.00 0.00 1004.9
20170723213817 78 224 6.0 0.0 0.00 0.00 0.00 1004.9
20170723213717 78 280 9.0 0.0 0.00 0.00 0.00 1004.9
20170723213617 78 257 9.0 0.0 0.00 0.00 0.00 1004.9
20170723213518 79 252 9.0 0.0 0.00 0.00 0.00 1004.9
20170723213317 78 271 8.0 0.0 0.00 0.00 0.00 1004.9
20170723213217 77 257 9.0 0.0 0.00 0.00 0.00 1005.0
20170723213117 77 232 7.0 0.0 0.00 0.00 0.00 1004.9
20170723213017 78 266 10.0 0.0 0.00 0.00 0.00 1005.0
20170723212917 79 264 9.0 0.0 0.00 0.00 0.00 1005.0
20170723212817 81 252 9.0 0.0 0.00 0.00 0.00 1005.0
20170723212617 82 232 11.0 0.0 0.00 0.00 0.00 1005.0
20170723212517 82 231 11.0 0.0 0.00 0.00 0.00 1005.0
20170723212417 82 229 11.0 0.0 0.00 0.00 0.00 1005.0
20170723212317 81 235 10.0 0.0 0.00 0.00 0.00 1005.0
20170723212217 83 253 7.0 0.0 0.00 0.00 0.00 1005.1
20170723212117 82 259 9.0 0.0 0.00 0.00 0.00 1005.0
20170723212017 81 232 11.0 0.0 0.00 0.00 0.00 1005.1
20170723211918 80 262 7.0 0.0 0.00 0.00 0.00 1005.1
20170723211817 79 253 11.0 0.0 0.00 0.00 0.00 1005.1
20170723211717 79 252 8.0 0.0 0.00 0.00 0.00 1005.0
20170723211617 80 221 10.0 0.0 0.00 0.00 0.00 1005.1
20170723211517 78 257 8.0 0.0 0.00 0.00 0.00 1005.1
20170723211417 78 262 9.0 0.0 0.00 0.00 0.00 1005.1
20170723211317 78 249 9.0 0.0 0.00 0.00 0.00 1005.0
20170723211217 79 260 7.0 0.0 0.00 0.00 0.00 1005.0
20170723211117 80 238 10.0 0.0 0.00 0.00 0.00 1005.1
20170723211017 79 242 9.0 0.0 0.00 0.00 0.00 1005.0
20170723210917 78 263 9.0 0.0 0.00 0.00 0.00 1005.0
20170723210817 79 253 10.0 0.0 0.00 0.00 0.00 1005.0
20170723210717 79 266 6.0 0.0 0.00 0.00 0.00 1005.1
20170723210617 79 267 6.0 0.0 0.00 0.00 0.00 1005.0
20170723210518 81 256 10.0 0.0 0.00 0.00 0.00 1005.1
20170723210417 79 264 8.0 0.0 0.00 0.00 0.00 1005.1
20170723210317 80 264 8.0 0.0 0.00 0.00 0.00 1005.1
20170723210217 79 248 7.0 0.0 0.00 0.00 0.00 1005.1
20170723210117 79 271 10.0 0.0 0.00 0.00 0.00 1005.1
20170723210017 79 250 7.0 0.0 0.00 0.00 0.00 1005.2
20170723205917 78 263 8.0 0.0 0.00 0.00 0.00 1005.1
20170723205817 78 236 9.0 0.0 0.00 0.00 0.00 1005.2
20170723205717 79 250 5.0 0.0 0.00 0.00 0.00 1005.2
20170723205417 80 249 11.0 0.0 0.00 0.00 0.00 1005.2
20170723205217 79 252 8.0 0.0 0.00 0.00 0.00 1005.2
20170723205117 78 271 8.0 0.0 0.00 0.00 0.00 1005.2
20170723205017 79 259 9.0 0.0 0.00 0.00 0.00 1005.2
20170723204917 79 266 8.0 0.0 0.00 0.00 0.00 1005.2
20170723204817 78 280 7.0 0.0 0.00 0.00 0.00 1005.2
20170723204717 77 283 7.0 0.0 0.00 0.00 0.00 1005.2
20170723204617 79 263 8.0 0.0 0.00 0.00 0.00 1005.2
20170723204517 78 273 9.0 0.0 0.00 0.00 0.00 1005.2
20170723204417 78 264 6.0 0.0 0.00 0.00 0.00 1005.3
20170723204317 78 246 7.0 0.0 0.00 0.00 0.00 1005.3
20170723204217 78 260 8.0 0.0 0.00 0.00 0.00 1005.3
20170723204117 78 249 9.0 0.0 0.00 0.00 0.00 1005.3